GW1572 Weather Reports


time (UTC)temp
C
wind
direction
speed
KPH
gust
KPH
rain 1hr
cm
rain 24hr
cm
rain mn
cm
humidity
%
barometer
mb
20260506071550 14 355 0.0 1.6 0.00 0.00 0.36 99 998.6
20260506070907 14 31 1.6 1.6 0.00 0.00 0.36 99 998.6
20260506070330 14 322 0.0 0.0 0.00 0.00 0.36 99 998.6
20260506062127 14 351 0.0 0.0 0.00 0.00 0.20 99 999.6
20260506061510 15 267 0.0 0.0 0.00 0.00 0.15 99 1000.0
20260506060342 15 289 0.0 0.0 0.00 0.00 0.10 99 1000.0
20260506050949 15 272 0.0 0.0 0.00 0.00 0.08 98 999.6
20260506050336 15 270 0.0 0.0 0.00 0.00 0.08 98 999.6
20260506044516 15 290 0.0 0.0 0.00 0.00 0.08 97 999.6
20260506043920 15 259 0.0 0.0 0.00 0.00 0.03 97 999.6
20260506042725 15 307 0.0 0.0 0.00 0.00 0.03 96 1000.0
20260506042128 15 215 0.0 1.6 0.00 0.00 0.03 96 1000.0
20260506041543 15 210 0.0 0.0 0.00 0.00 0.03 95 1000.3
20260506040349 15 209 0.0 0.0 0.00 0.00 0.00 95 1000.0
20260506035712 15 206 0.0 0.0 0.00 0.00 0.03 95 1000.0
20260506035141 15 205 0.0 0.0 0.00 0.00 0.03 95 999.6
20260506033949 15 210 0.0 0.0 0.00 0.00 0.03 95 1000.0
20260506033317 15 216 1.6 1.6 0.00 0.00 0.03 94 1000.0
20260506032715 15 213 0.0 0.0 0.00 0.00 0.03 94 1000.0
20260506032147 15 205 0.0 1.6 0.00 0.00 0.03 93 1000.0
20260506031550 15 213 0.0 0.0 0.00 0.00 0.03 93 1000.3
20260506030915 15 202 0.0 1.6 0.00 0.00 0.03 93 1000.0
20260506030347 15 204 0.0 0.0 0.00 0.00 0.03 93 1000.0
20260506025746 15 203 0.0 1.6 0.00 0.00 0.00 93 1000.0
20260506025129 15 212 0.0 0.0 0.00 0.00 0.00 91 1000.3
20260506024518 16 213 0.0 1.6 0.00 0.00 0.00 89 1000.3
20260506023916 16 214 0.0 0.0 0.00 0.00 0.00 87 1000.6
20260506023351 16 212 0.0 0.0 0.00 0.00 0.00 84 1000.6
20260506022716 17 215 0.0 0.0 0.00 0.00 0.00 81 1001.0
20260506022143 17 222 0.0 0.0 0.00 0.00 0.00 78 1001.0
20260506021545 17 227 0.0 0.0 0.00 0.00 0.00 74 1001.0
20260506020946 18 229 0.0 0.0 0.00 0.00 0.00 70 1000.6
20260506020334 18 226 0.0 0.0 0.00 0.00 0.00 71 1000.0
20260506015719 18 226 0.0 0.0 0.00 0.00 0.00 69 1000.0
20260506015150 18 228 0.0 0.0 0.00 0.00 0.00 71 1000.0
20260506014532 18 227 0.0 0.0 0.00 0.00 0.00 70 1000.3
20260506013937 18 233 0.0 0.0 0.00 0.00 0.00 69 1000.0
20260506013345 18 231 0.0 0.0 0.00 0.00 0.00 69 1000.0
20260506012147 18 254 0.0 0.0 0.00 0.00 0.00 68 1000.0
20260506010911 18 252 0.0 0.0 0.00 0.00 0.00 68 1000.3
20260506003348 18 357 0.0 0.0 0.00 0.00 0.00 67 1000.6
20260506002745 18 278 0.0 0.0 0.00 0.00 0.00 68 1000.6
20260506002128 18 262 0.0 0.0 0.00 0.00 0.00 70 1000.6
20260506001517 18 284 0.0 0.0 0.00 0.00 0.00 69 1000.6
20260506000919 18 259 0.0 0.0 0.00 0.00 0.00 68 1000.6
20260506000349 19 296 0.0 0.0 0.00 0.00 0.00 68 1000.6
20260505235739 20 247 0.0 0.0 0.00 0.00 0.00 68 1000.6
20260505235119 20 267 0.0 0.0 0.00 0.00 0.00 68 1000.6
20260505234527 21 277 0.0 0.0 0.00 0.00 0.00 65 1001.0
20260505233341 21 9 3.2 3.2 0.00 0.00 0.00 55 1001.0
20260505232713 21 117 1.6 1.6 0.00 0.00 0.00 57 1001.3
20260505232150 22 318 6.4 9.7 0.00 0.00 0.00 53 1001.3
20260505231552 22 333 6.4 9.7 0.00 0.00 0.00 52 1001.3
20260505230932 21 19 1.6 3.2 0.00 0.00 0.00 54 1001.0
20260505230345 21 215 0.0 0.0 0.00 0.00 0.00 65 1001.0
20260505225114 22 262 0.0 0.0 0.00 0.00 0.00 65 1001.0
20260505224513 21 310 1.6 1.6 0.00 0.00 0.00 59 1001.0
20260505223921 22 277 0.0 0.0 0.00 0.00 0.00 64 1000.6
20260505223312 22 288 0.0 0.0 0.00 0.00 0.00 64 1001.0
20260505222747 22 261 0.0 0.0 0.00 0.00 0.00 60 1001.0
20260505222114 22 242 0.0 0.0 0.00 0.00 0.00 60 1001.0
20260505221516 23 334 0.0 0.0 0.00 0.00 0.00 52 1000.6
20260505220313 23 277 3.2 4.8 0.00 0.00 0.00 52 1001.0
20260505215741 23 41 4.8 6.4 0.00 0.00 0.00 51 1001.0
20260505215149 23 339 4.8 6.4 0.00 0.00 0.00 50 1001.0
20260505214545 23 302 3.2 4.8 0.00 0.00 0.00 51 1001.0
20260505213941 23 280 3.2 3.2 0.00 0.00 0.00 51 1001.3
20260505213316 23 349 4.8 6.4 0.00 0.00 0.00 49 1001.3
20260505212742 23 12 3.2 3.2 0.00 0.00 0.00 52 1001.3
20260505212124 23 1 3.2 4.8 0.00 0.00 0.00 53 1000.6
20260505211527 23 301 4.8 6.4 0.00 0.00 0.00 51 1001.0
20260505210344 24 41 8.0 11.3 0.00 0.00 0.00 49 1001.3
20260505205752 25 348 6.4 9.7 0.00 0.00 0.00 47 1001.3
20260505205138 25 299 4.8 4.8 0.00 0.00 0.00 46 1001.0
20260505204543 25 283 3.2 4.8 0.00 0.00 0.00 48 1001.3
20260505203317 23 359 4.8 4.8 0.00 0.00 0.00 50 1001.6
20260505202754 23 20 4.8 4.8 0.00 0.00 0.00 52 1001.6
20260505202112 23 3 4.8 4.8 0.00 0.00 0.00 51 1001.6
20260505201532 23 2 3.2 4.8 0.00 0.00 0.00 50 1001.6
20260505200940 23 345 4.8 6.4 0.00 0.00 0.00 51 1001.6
20260505195709 23 293 3.2 3.2 0.00 0.00 0.00 51 1001.6
20260505194543 23 351 6.4 6.4 0.00 0.00 0.00 50 1002.0
20260505193940 23 7 6.4 11.3 0.00 0.00 0.00 51 1002.3
20260505193332 23 356 4.8 6.4 0.00 0.00 0.00 52 1002.3
20260505192115 23 338 6.4 6.4 0.00 0.00 0.00 49 1002.3
20260505190931 23 9 6.4 11.3 0.00 0.00 0.00 52 1002.7
20260505190336 23 358 3.2 4.8 0.00 0.00 0.00 52 1002.7
20260505185752 23 327 4.8 6.4 0.00 0.00 0.00 52 1002.7
20260505185140 23 6 6.4 9.7 0.00 0.00 0.00 52 1003.0
20260505184551 23 347 4.8 6.4 0.00 0.00 0.00 51 1003.0
20260505183341 23 282 6.4 9.7 0.00 0.00 0.00 51 1003.0
20260505181514 23 279 8.0 12.9 0.00 0.00 0.00 52 1003.0
20260505180926 23 293 8.0 9.7 0.00 0.00 0.00 50 1003.3
20260505180313 23 305 4.8 4.8 0.00 0.00 0.00 51 1003.0
20260505175713 23 11 6.4 12.9 0.00 0.00 0.00 50 1003.3
20260505175125 23 354 6.4 9.7 0.00 0.00 0.00 51 1003.3
20260505174525 23 353 8.0 9.7 0.00 0.00 0.00 51 1003.3
20260505173933 23 343 6.4 6.4 0.00 0.00 0.00 52 1003.0
20260505173350 23 344 9.7 14.5 0.00 0.00 0.00 50 1003.0
20260505172720 23 42 8.0 9.7 0.00 0.00 0.00 52 1003.3
20260505172131 23 27 8.0 12.9 0.00 0.00 0.00 52 1003.0
20260505171517 23 336 6.4 9.7 0.00 0.00 0.00 52 1003.3
20260505170939 23 354 8.0 9.7 0.00 0.00 0.00 51 1003.3
20260505170328 23 339 6.4 9.7 0.00 0.00 0.00 52 1003.3
20260505165708 23 357 9.7 12.9 0.00 0.00 0.00 53 1003.0
20260505165110 24 301 9.7 14.5 0.00 0.00 0.00 52 1003.3
20260505164512 23 335 9.7 14.5 0.00 0.00 0.00 52 1003.3
20260505163952 23 359 4.8 6.4 0.00 0.00 0.00 51 1003.0
20260505163316 23 322 16.1 22.5 0.00 0.00 0.00 52 1003.0
20260505162718 23 290 8.0 11.3 0.00 0.00 0.00 52 1003.3
20260505162148 23 263 6.4 9.7 0.00 0.00 0.00 52 1003.3
20260505161535 24 287 8.0 12.9 0.00 0.00 0.00 52 1003.3
20260505160921 23 2 6.4 6.4 0.00 0.00 0.00 54 1003.3
20260505160344 23 333 6.4 6.4 0.00 0.00 0.00 53 1003.3
20260505153319 23 354 8.0 9.7 0.00 0.00 0.00 54 1003.3
20260505152748 23 316 4.8 6.4 0.00 0.00 0.00 57 1003.3
20260505152114 23 359 8.0 11.3 0.00 0.00 0.00 53 1003.3
20260505151546 22 348 8.0 9.7 0.00 0.00 0.00 54 1003.7
20260505150942 22 24 6.4 6.4 0.00 0.00 0.00 55 1003.3
20260505150331 22 15 6.4 9.7 0.00 0.00 0.00 55 1003.3
20260505140322 21 266 6.4 6.4 0.00 0.00 0.00 57 1003.3
20260505124537 17 269 0.0 0.0 0.00 0.00 0.00 72 1003.7
20260505123916 17 217 0.0 0.0 0.00 0.00 0.00 75 1003.7
20260505123326 17 265 0.0 0.0 0.00 0.00 0.00 76 1004.0
20260505122715 17 300 0.0 0.0 0.00 0.00 0.00 70 1003.7
20260505122122 17 291 0.0 0.0 0.00 0.00 0.00 75 1003.7
20260505120935 17 294 0.0 1.6 0.00 0.00 0.00 75 1003.3
20260505120316 17 4 0.0 1.6 0.00 0.00 0.00 77 1003.3
20260505115721 17 275 0.0 0.0 0.00 0.00 0.00 76 1003.3
20260505115152 17 277 0.0 0.0 0.00 0.00 0.00 75 1003.3
20260505114514 17 259 0.0 0.0 0.00 0.00 0.00 75 1003.3
20260505113925 16 277 0.0 0.0 0.00 0.00 0.00 77 1003.3
20260505113317 16 270 0.0 0.0 0.00 0.00 0.00 76 1003.0
20260505112135 16 240 0.0 1.6 0.00 0.00 0.00 76 1003.0
20260505111538 15 7 4.8 4.8 0.00 0.00 0.00 73 1003.0
20260505110926 15 261 0.0 0.0 0.00 0.00 0.00 78 1002.7
20260505110324 16 233 0.0 0.0 0.00 0.00 0.00 78 1002.7
20260505101527 15 249 0.0 0.0 0.00 0.00 0.00 80 1002.7
20260505100942 15 240 0.0 1.6 0.00 0.00 0.00 81 1002.7
20260505100313 15 258 0.0 0.0 0.00 0.00 0.00 82 1002.7
20260505095739 15 259 0.0 0.0 0.00 0.00 0.00 81 1002.3
20260505095146 15 249 0.0 0.0 0.00 0.00 0.00 80 1002.7
20260505094528 15 239 0.0 0.0 0.00 0.00 0.00 81 1002.3
20260505093910 15 275 0.0 0.0 0.00 0.00 0.00 80 1002.7
20260505093331 15 283 0.0 0.0 0.00 0.00 0.00 80 1002.0
20260505092734 15 275 0.0 0.0 0.00 0.00 0.00 79 1002.0
20260505092112 15 9 0.0 0.0 0.00 0.00 0.00 79 1002.0
20260505091543 15 262 0.0 1.6 0.00 0.00 0.00 79 1002.0
20260505090932 15 280 0.0 0.0 0.00 0.00 0.00 78 1001.6
20260505090330 16 254 0.0 0.0 0.00 0.00 0.00 78 1001.6
20260505085725 16 256 0.0 0.0 0.00 0.00 0.00 76 1001.6
20260505085123 15 247 0.0 0.0 0.00 0.00 0.00 78 1001.6
20260505084548 16 285 0.0 0.0 0.00 0.00 0.00 78 1001.6
20260505083930 16 250 0.0 0.0 0.00 0.00 0.00 78 1001.6
20260505082713 16 15 0.0 1.6 0.00 0.00 0.00 76 1001.6
20260505081509 17 310 0.0 0.0 0.00 0.00 0.00 74 1001.6
20260505080952 17 229 1.6 1.6 0.00 0.00 0.00 73 1001.6
20260505080308 17 346 0.0 1.6 0.00 0.00 0.00 73 1001.6
20260505075729 18 341 0.0 1.6 0.00 0.00 0.00 67 1001.6
20260505075111 16 336 1.6 1.6 0.00 0.00 0.00 72 1001.6
20260505073939 17 3 1.6 1.6 0.00 0.00 0.00 73 1001.3
20260505073351 17 25 3.2 4.8 0.00 0.00 0.00 70 1001.3
20260505072150 16 343 0.0 0.0 0.00 0.00 0.00 79 1001.6